Regional Weather Roundup
Issued by NWS Cleveland, OH

Home | Current Version | Previous Version | Graphics & Text | Print | Product List | Glossary On
Versions: 1 2 3 4 5 6 7 8 9 10 11 12 13 14 15 16 17 18 19 20 21 22 23 24 25 26 27 28 29 30 31 32 33 34 35 36 37 38 39 40 41 42 43 44 45 46 47 48 49 50
000
ASUS41 KCLE 181402
RWRCLE
OHIO REGIONAL WEATHER ROUNDUP
NATIONAL WEATHER SERVICE CLEVELAND, OH
1000 AM EDT WED OCT 18 2017

NOTE: "FAIR" INDICATES FEW OR NO CLOUDS BELOW 12,000 FEET WITH NO
SIGNIFICANT WEATHER AND/OR OBSTRUCTIONS TO VISIBILITY.

OHZ001>008-015>018-024>027-034-035-043-044-181500-
   NORTHWEST OHIO

CITY           SKY/WX    TMP DP  RH WIND       PRES   REMARKS
DEFIANCE       SUNNY     51  42  71 S10       30.27S
FINDLAY        SUNNY     55  44  66 S9        30.29R
TOLEDO EXPRESS SUNNY     52  44  74 S6        30.27S
TOLEDO EXEC    SUNNY     54  42  64 SW9       30.29R
LIMA           SUNNY     53  45  74 S8        30.30R
$$

OHZ009>014-019>023-028>033-038-089-181500-
   NORTHEAST OHIO

CITY           SKY/WX    TMP DP  RH WIND       PRES   REMARKS
CLE-HOPKINS    SUNNY     57  42  57 S9        30.33S
CLE-LAKEFRONT  SUNNY     56  41  57 SE8       30.30S
CUY CO. ARPT   SUNNY     61  39  44 S6        30.32S
LORAIN-ELYRIA  SUNNY     53  40  61 SW5       30.32S
ASHTABULA      SUNNY     53  44  71 S6        30.33S
AKRON-CANTON   SUNNY     54  42  64 S6        30.34S
WOOSTER        SUNNY     53  43  68 VRB3      30.34S
MANSFIELD      SUNNY     54  43  66 S6        30.32S
YOUNGSTOWN     SUNNY     54  42  64 S5        30.34R
$$

OHZ042-051>053-060>062-070>072-077>081-181500-
  SOUTHWEST OHIO

CITY           SKY/WX    TMP DP  RH WIND       PRES   REMARKS
CINC-COVINGTON SUNNY     54  46  74 S6        30.33R
CINC-LUNKEN    SUNNY     49  48  97 CALM      30.35S
HAMILTON       SUNNY     51  47  86 CALM      30.34S
DAYTON         MOSUNNY   53  44  71 S8        30.33S
WRIGHT-PAT AFB SUNNY     51  45  78 CALM      30.33R
DAYTON GENERAL SUNNY     53  44  71 S6        30.32S
WILMINGTON     SUNNY     57  45  64 S6        30.33S
$$

OHZ036-037-039>041-045>050-054>059-063>069-073>076-082>088-181500-
  CENTRAL AND SOUTHEAST OHIO

CITY           SKY/WX    TMP DP  RH WIND       PRES   REMARKS
COLUMBUS       SUNNY     52  44  74 S5        30.34R
OSU AIRPORT    SUNNY     53  45  74 S6        30.33S
BOLTON FIELD   SUNNY     52  45  76 S5        30.34S
RICKENBACK AFB SUNNY     48  44  88 CALM      30.34S
NEWARK         SUNNY     50  42  74 CALM      30.34S
MARION         SUNNY     51  43  74 S7        30.33R
LANCASTER      SUNNY     50  45  83 CALM      30.34S
ZANESVILLE     SUNNY     49  42  77 SE5       30.35S
NEW PHILLY     NOT AVBL
$$




USA.gov is the U.S. government's official web portal to all federal, state and local government web resources and services.